This demonstration page uses our WeatherBlox Daily Observations layout. Learn more.

Left ArrowRight Arrow

38.89511, -77.03637

Hourly Observations for May 6, 2017

Temp ( °F °C ) Dew Point ( °F °C ) Humidity (%) Winds ( mph kmh ) Pressure ( in mb ) Visibility ( mi km ) Precip ( " mm )
12:27 am 00:27 Partly Cloudy 65 18.3 64 17.8 97 97 SSW 6 9 29.38 995 10 16 0.00 0.00
12:52 am 00:52 Partly Cloudy 65 18.3 63 17.2 93 93 SSW 8 13 29.36 994 10 16 0.00 0.00
1:52 am 01:52 Partly Cloudy 63 17.2 58 14.4 84 84 SSW 13 20 29.36 994 10 16 0.00 0.00
2:52 am 02:52 Partly Cloudy 61 16.1 56 13.3 84 84 S 15 24 29.34 994 10 16 0.00 0.00
3:52 am 03:52 Mostly Clear 59 15 54 12.2 83 83 S 12 19 29.34 994 10 16 0.00 0.00
4:52 am 04:52 Mostly Clear 57 13.9 52 11.1 83 83 S 15 24 29.33 993 10 16 0.00 0.00
5:52 am 05:52 Partly Cloudy 57 13.9 51 10.6 81 81 S 18 30 29.34 994 10 16 0.00 0.00
6:23 am 06:23 Mostly Cloudy 57 13.9 51 10.6 81 81 S 16 26 29.35 994 10 16 0.00 0.00
6:52 am 06:52 Mostly Cloudy 58 14.4 52 11.1 81 81 S 20 31 29.36 994 10 16 0.00 0.00
7:52 am 07:52 Cloudy 58 14.4 52 11.1 81 81 SSW 14 22 29.36 994 10 16 0.00 0.00
8:52 am 08:52 Cloudy 58 14.4 52 11.1 81 81 SSW 15 24 29.37 995 10 16 0.00 0.00
9:41 am 09:41 Cloudy 58 14.4 52 11.1 81 81 SW 15 24 29.38 995 10 16 0.00 0.00
9:52 am 09:52 Cloudy 58 14.4 52 11.1 81 81 SW 13 20 29.39 995 10 16 0.00 0.00
10:11 am 10:11 Cloudy 58 14.4 52 11.1 81 81 SW 15 24 29.41 996 10 16 0.00 0.00
10:28 am 10:28 Cloudy with Light Rain 57 14 54 12 88 88 SW 9 15 29.41 996 3 4 0.00 0.00
10:42 am 10:42 Cloudy with Light Rain 55 13 54 12 94 94 WSW 8 13 29.41 996 3 5 0.00 0.00
10:48 am 10:48 Cloudy with Light Rain 55 13 54 12 94 94 W 10 17 29.41 996 6 10 0.00 0.00
10:52 am 10:52 Cloudy with Light Rain 56 13.3 54 12.2 93 93 W 13 20 29.41 996 7 11 0.03 0.76
11:35 am 11:35 Cloudy with Light Rain 58 14.4 54 12.2 87 87 W 7 11 29.44 997 7 11 0.01 0.25
11:52 am 11:52 Cloudy with Light Rain 58 14.4 54 12.2 87 87 W 7 11 29.42 996 10 16 0.03 0.76
12:24 pm 12:24 Cloudy with Light Rain 57 14 52 11 82 82 W 18 30 29.44 997 10 16 0.00 0.00
12:52 pm 12:52 Cloudy with Light Rain 57 13.9 48 8.9 72 72 WNW 14 22 29.44 997 10 16 0.00 0.03
1:52 pm 13:52 Cloudy with Light Rain 56 13.3 48 8.9 75 75 W 14 22 29.46 998 10 16 0.01 0.25
2:52 pm 14:52 Cloudy 56 13.3 46 7.8 70 70 WNW 16 26 29.48 998 10 16 0.00 0.03
3:31 pm 15:31 Cloudy with Light Rain 56 13.3 46 7.8 70 70 WNW 12 19 29.50 999 10 16 0.00 0.03
3:52 pm 15:52 Cloudy with Light Rain 56 13.3 47 8.3 72 72 W 8 13 29.49 999 10 16 0.00 0.03
4:52 pm 16:52 Cloudy with Light Rain 56 13.3 48 8.9 75 75 W 8 13 29.49 999 10 16 0.00 0.03
5:00 pm 17:00 Cloudy with Light Rain 55 13 48 9 77 77 W 8 13 29.50 999 10 16 0.00 0.00
5:52 pm 17:52 Cloudy with Light Rain 55 13 50 10 82 82 WSW 9 15 29.53 1000 10 16 0.00 0.00
6:34 pm 18:34 Cloudy with Light Rain 55 13 52 11 88 88 SW 8 13 29.53 1000 10 16 0.00 0.00
6:52 pm 18:52 Cloudy with Light Rain 55 12.8 50 10 83 83 WSW 10 17 29.53 1000 10 16 0.00 0.03
7:39 pm 19:39 Mostly Cloudy 55 12.8 50 10 83 83 WSW 9 15 29.56 1001 10 16 0.00 0.03
7:52 pm 19:52 Mostly Cloudy 55 12.8 49 9.4 80 80 WSW 7 11 29.55 1001 10 16 0.00 0.03
8:05 pm 20:05 Mostly Cloudy 55 12.8 49 9.4 80 80 WSW 7 11 29.56 1001 10 16 0.00 0.00
8:52 pm 20:52 Mostly Cloudy 53 11.7 50 10 89 89 SW 7 11 29.57 1001 10 16 0.00 0.00
9:07 pm 21:07 Mostly Cloudy 54 12.2 49 9.4 83 83 WSW 8 13 29.59 1002 10 16 0.00 0.00
9:52 pm 21:52 Mostly Clear 52 11.1 47 8.3 83 83 SW 5 7 29.59 1002 10 16 0.00 0.00
10:52 pm 22:52 Partly Cloudy 51 10.6 46 7.8 83 83 WSW 7 11 29.60 1003 10 16 0.00 0.00
11:52 pm 23:52 Mostly Clear 50 10 45 7.2 83 83 SSW 7 11 29.61 1003 10 16 0.00 0.00

Powered by AerisWeather